Content
SEND FEEDBACK

Daily
Averages
Monthly
Summary
United States of America

FORT JONES, CALIFORNIA


Home > North America > United States > California
Elevation: 272 feet     Latitude: 41 36N     Longitude: 122 51W

WEATHER
 
SELECT A DAY
Number of Records: 240,756;   Date Range: 1/1/95 - 8/12/14
 
SHARE

PRINT THIS DATA

[ ← Previous Day ]
WEATHER ALMANAC - JANUARY 31, 2013
[ Next Day → ]
[ °C ]   °F
Weather ElementAverageHighLow
Temperature28.5 °F42.1 °F (3:53 pm)24.1 °F (3:53 am)
Dewpoint25.9 °F35.1 °F (3:53 pm)21.2 °F (2:30 am)
Humidity90.1 %100 % (11:18 am)76 % (3:53 pm)
Barometer30.41 in30.50 in (12:53 am)30.31 in (2:22 pm)
Wind Speed2 mph6.9 mph (12:53 pm)
Weather ElementAverage
Visibility3.2 mi
Wind DirectionENE (74.9 °)

Weather ElementTotal
Precipitation---
Heating Degree Days31.9 (Base 65)
Averaged from 55 records on January 31, 2013
WEATHER CONDITIONS BREAKOUT
WIND DIRECTION BREAKOUT
WEATHER BY HOUR - JANUARY 31, 2013
[ °C ]   °F
Local TimeTemperatureDewpointHumidityBarometerVisibilityWind DirectionWind SpeedGust SpeedPrecipitationEventsConditions
12:38 AM28.4 °F26.6 °F93 %30.41 in3.0 miCalmClear
12:53 AM25.0 °F24.1 °F96 %30.50 in1.0 miCalmMist
1:00 AM26.6 °F23.0 °F86 %30.40 in0.5 miCalmFogLight Freezing Fog
1:04 AM26.6 °F24.8 °F93 %30.40 in1.5 miCalmPartly Cloudy
1:06 AM26.6 °F24.8 °F93 %30.40 in4.0 miCalmPartly Cloudy
1:35 AM26.6 °F24.8 °F93 %30.40 in1.5 miCalmClear
1:43 AM26.6 °F24.8 °F93 %30.40 in0.5 miCalmFogLight Freezing Fog
1:51 AM26.6 °F24.8 °F93 %30.40 in1.5 miCalmPartly Cloudy
1:53 AM26.1 °F24.1 °F92 %30.48 in2.5 miEast (100°)3.5 mphPartly Cloudy
2:00 AM26.6 °F24.8 °F93 %30.40 in7.0 miCalmPartly Cloudy
2:30 AM24.8 °F21.2 °F86 %30.41 in1.8 miCalmScattered Clouds
2:36 AM24.8 °F21.2 °F86 %30.40 in0.8 miCalmMist
3:11 AM24.8 °F21.2 °F86 %30.40 in2.0 miCalmMostly Cloudy
3:15 AM24.8 °F21.2 °F86 %30.40 in0.8 miWSW (240°)3.5 mphMist
3:24 AM24.8 °F21.2 °F86 %30.40 in0.2 miSW (220°)3.5 mphFogLight Freezing Fog
3:43 AM24.8 °F21.2 °F86 %30.40 in0.5 miWSW (240°)3.5 mphFogLight Freezing Fog
3:50 AM24.8 °F21.2 °F86 %30.40 in0.2 miSW (230°)3.5 mphFogLight Freezing Fog
3:53 AM24.1 °F21.9 °F91 %30.48 in0.2 miSW (230°)3.5 mphFogLight Freezing Fog
4:01 AM24.8 °F21.2 °F86 %30.40 in0.5 miCalmFogLight Freezing Fog
4:45 AM24.8 °F23.0 °F93 %30.40 in0.2 miCalmFogLight Freezing Fog
4:53 AM24.1 °F21.9 °F91 %30.48 in0.2 miCalmFogLight Freezing Fog
5:53 AM24.1 °F21.9 °F91 %30.47 in0.2 miCalmFogLight Freezing Fog
6:14 AM24.8 °F21.2 °F86 %30.38 in0.5 miCalmFogLight Freezing Fog
6:28 AM24.8 °F21.2 °F86 %30.38 in0.2 miEast (90°)3.5 mphFogLight Freezing Fog
6:50 AM24.8 °F23.0 °F93 %30.38 in0.8 miNNE (20°)4.6 mphMist
6:53 AM25.0 °F23.0 °F92 %30.47 in1.0 miNorth (10°)4.6 mphMist
7:00 AM24.8 °F21.2 °F86 %30.38 in0.5 miNorth (360°)4.6 mphFogLight Freezing Fog
7:02 AM24.8 °F23.0 °F93 %30.38 in0.2 miNorth (360°)5.8 mphFogLight Freezing Fog
7:53 AM25.0 °F24.1 °F96 %30.49 in0.2 miCalmFogLight Freezing Fog
8:53 AM27.0 °F26.1 °F96 %30.49 in0.2 miCalmFogLight Freezing Fog
9:53 AM28.9 °F27.0 °F92 %30.50 in0.2 miCalmFogLight Freezing Fog
10:38 AM30.2 °F28.4 °F93 %30.40 in1.0 miCalmMist
10:50 AM30.2 °F28.4 °F93 %30.40 in0.5 miSW (230°)3.5 mphFogLight Freezing Fog
10:53 AM30.9 °F28.9 °F92 %30.49 in0.5 miCalmFogLight Freezing Fog
11:18 AM32.0 °F32.0 °F100 %30.39 in1.0 miCalmOvercast
11:50 AM32.0 °F32.0 °F100 %30.37 in2.0 miSW (220°)3.5 mphOvercast
11:53 AM32.0 °F32.0 °F100 %30.46 in2.5 miCalmOvercast
12:02 PM33.8 °F33.8 °F100 %30.37 in5.0 miSSW (210°)4.6 mphOvercast
12:53 PM35.1 °F33.1 °F92 %30.44 in10.0 miSouth (190°)6.9 mphOvercast
1:53 PM37.9 °F34.0 °F86 %30.41 in10.0 miSouth (180°)6.9 mphMostly Cloudy
2:22 PM39.2 °F33.8 °F81 %30.31 in10.0 miSSW (210°)6.9 mphScattered Clouds
2:53 PM39.9 °F34.0 °F79 %30.38 in10.0 miSouth (190°)4.6 mphClear
3:53 PM42.1 °F35.1 °F76 %30.38 in10.0 miSW (230°)5.8 mphClear
4:53 PM41.0 °F35.1 °F79 %30.38 in10.0 miCalmClear
5:53 PM34.0 °F30.0 °F85 %30.40 in10.0 miSE (140°)3.5 mphClear
6:53 PM32.0 °F28.9 °F88 %30.40 in10.0 miCalmClear
7:53 PM28.9 °F27.0 °F92 %30.40 in10.0 miCalmClear
8:53 PM28.9 °F27.0 °F92 %30.41 in1.0 miCalmClear
8:58 PM28.4 °F26.6 °F93 %30.31 in0.5 miNorth (10°)3.5 mphFogLight Freezing Fog
9:17 PM28.4 °F24.8 °F86 %30.31 in0.5 miENE (60°)3.5 mphFogLight Freezing Fog
9:23 PM28.4 °F26.6 °F93 %30.31 in1.2 miENE (60°)3.5 mphScattered Clouds
9:25 PM30.2 °F26.6 °F86 %30.31 in4.0 miNE (40°)3.5 mphPartly Cloudy
9:53 PM27.0 °F24.1 °F89 %30.41 in10.0 miNE (50°)5.8 mphClear
10:53 PM27.0 °F25.0 °F92 %30.41 in10.0 miCalmClear
11:53 PM27.0 °F25.0 °F92 %30.42 in10.0 miCalmClear
Hourly data recorded from KSIY, located miles away from Fort Jones, California







STORIES FROM OUR PARTNERS